Regional Weather Roundup
Issued by NWS Goodland, KS

Home | Current Version | Previous Version | Text Only | Print | Product List | Glossary On
Versions: 1 2 3 4 5 6 7 8 9 10 11 12 13 14 15 16 17 18 19 20 21 22 23 24 25 26 27 28 29 30 31 32 33 34 35 36 37 38 39 40 41 42 43 44 45 46 47 48 49 50
000
ASUS43 KGLD 200808
RWRGLD

GOODLAND FORECAST AREA HOURLY WEATHER ROUNDUP
NATIONAL WEATHER SERVICE GOODLAND KS
200 AM MDT SUN AUG 20 2017

...OFFICIAL OBSERVATIONS...

CITY           SKY/WX    TMP DP  RH WIND       PRES   REMARKS
GOODLAND KS    CLEAR     71  51  49 S16       29.93F
HILL CITY KS   CLEAR     75  64  68 SW7       29.89F
IMPERIAL NEB   PTCLDY    71  56  58 NW9       29.88F
MCCOOK NEB     CLEAR     71  62  73 SW9       29.86S
AKRON CO       CLOUDY    71  42  35 SW10      30.00F
BURLINGTON CO  PTCLDY    67  54  63 S15       29.97F
LIMON CO       CLEAR     53  50  89 N5        30.07F
$$

...UNOFFICIAL OBSERVATIONS...

CITY           SKY/WX    TMP DP  RH WIND       PRES   REMARKS
LENORA KS        N/A     72  32  23 CALM        N/A
NORTON KS      CLEAR     73  59  60 S12       29.86F
TRENTON NEB      N/A     68  32  26 SW5         N/A
KIT CARSON CO    N/A     63  53  68 CALM        N/A
YUMA CO        FAIR      64  37  36 W7        29.95F
$$




USA.gov is the U.S. government's official web portal to all federal, state and local government web resources and services.